Weather History for Danville, VA

Change the Weather History Date:

Sunday, February 5, 2012

  Actual Average Record
Temperature  
Mean Temperature 34 °F 39 °F  
Max Temperature 40 °F 48 °F 70 °F (1991)
Min Temperature 27 °F 31 °F 4 °F (1996)
Degree Days  
Heating Degree Days 31 26  
Month to date heating degree days 96 130  
Since 1 July heating degree days 2192 2458  
Cooling Degree Days 0 0  
Month to date cooling degree days 0 0  
Year to date cooling degree days 0 0  
Moisture  
Dew Point 35 °F    
Average Humidity 93    
Maximum Humidity 100    
Minimum Humidity 85    
Precipitation  
Precipitation 0.10 in 0.11 in 1.41 in (2010)
Month to date precipitation 0.48 0.59  
Year to date precipitation 2.47 4.01  
Snow  
Snow 0.00 in - - ()
Month to date snowfall 0.0  
Since 1 July snowfall 0.0  
Snow Depth 0.00 in    
Sea Level Pressure  
Sea Level Pressure 30.13 in    
Wind  
Wind Speed 6 mph (NE)    
Max Wind Speed 14 mph    
Max Gust Speed 17 mph    
Visibility 8 miles    
Events Rain    
T = Trace of Precipitation, MM = Missing Value Source: NWS Daily Summary

Daily Weather History Graph

Daily Weather History Graph

Search for Another Location

Airport:

Trip Planner

Search our weather history database for the weather conditions in past years. The results will help you decide how hot, cold, wet, or windy it might be!

Date:

Astronomy

Feb. 05, 2012 Rise Set
Actual Time 7:16 AM EST 5:47 PM EST
Civil Twilight 6:49 AM EST 6:14 PM EST
Nautical Twilight 6:18 AM EST 6:44 PM EST
Astronomical Twilight 5:48 AM EST 7:14 PM EST
Moon 3:45 PM EST (2/5) 5:23 AM EST (2/5)
Length of Visible Light 11h 24m
Length of Day
10h 30m
Waxing Gibbous, 94% of the Moon is Illuminated
Feb 5
Waxing Gibbous
Feb 7
Full
Feb 14
Last Quarter
Feb 21
New
Feb 29
First Quarter

Hourly Weather History & Observations

Time (EST) Temp. Windchill Dew Point Humidity Pressure Visibility Wind Dir Wind Speed Gust Speed Precip Events Conditions
12:53 AM 39.0 °F 34.0 °F 37.9 °F 96% 30.06 in 5.0 mi NE 6.9 mph - N/A   Overcast
1:53 AM 39.0 °F 34.0 °F 37.9 °F 96% 30.05 in 7.0 mi NE 6.9 mph - 0.01 in   Overcast
2:53 AM 37.9 °F 32.7 °F 37.0 °F 97% 30.04 in 7.0 mi NNE 6.9 mph - 0.01 in Rain Light Rain
3:53 AM 37.9 °F 34.4 °F 37.9 °F 100% 30.02 in 8.0 mi NE 4.6 mph - 0.00 in   Overcast
4:53 AM 37.9 °F 33.5 °F 37.0 °F 97% 30.02 in 7.0 mi NNE 5.8 mph - 0.00 in Rain Light Rain
5:15 AM 37.4 °F 32.1 °F 37.4 °F 100% 30.03 in 10.0 mi NE 6.9 mph - 0.00 in   Overcast
5:53 AM 37.9 °F 32.7 °F 37.0 °F 97% 30.02 in 9.0 mi NNE 6.9 mph - 0.00 in   Overcast
6:53 AM 37.9 °F 34.4 °F 37.0 °F 97% 30.04 in 10.0 mi NNE 4.6 mph - 0.01 in   Overcast
7:53 AM 37.9 °F 33.5 °F 37.0 °F 97% 30.05 in 10.0 mi NE 5.8 mph - N/A   Overcast
8:53 AM 39.0 °F 33.4 °F 37.0 °F 93% 30.07 in 10.0 mi NNE 8.1 mph - N/A   Overcast
9:53 AM 39.0 °F 33.4 °F 37.0 °F 93% 30.09 in 10.0 mi NNE 8.1 mph - N/A   Overcast
10:53 AM 39.0 °F 33.4 °F 37.0 °F 93% 30.10 in 10.0 mi NE 8.1 mph - N/A   Overcast
11:28 AM 37.4 °F 30.3 °F 37.4 °F 100% 30.12 in 5.0 mi NNE 10.4 mph - N/A   Overcast
11:53 AM 39.0 °F 34.0 °F 37.0 °F 93% 30.12 in 3.0 mi NNE 6.9 mph - 0.00 in Rain Light Rain
12:02 PM 37.4 °F 32.1 °F 37.4 °F 100% 30.12 in 2.0 mi NNE 6.9 mph - 0.04 in Rain Rain
12:16 PM 37.4 °F 32.1 °F 37.4 °F 100% 30.11 in 5.0 mi NNE 6.9 mph - 0.04 in Rain Light Rain
12:31 PM 39.2 °F 33.6 °F 37.4 °F 93% 30.12 in 5.0 mi NE 8.1 mph - 0.05 in Rain Light Rain
12:53 PM 39.0 °F 32.3 °F 37.0 °F 93% 30.11 in 7.0 mi NNE 10.4 mph - 0.06 in Rain Light Rain
1:31 PM 39.2 °F 32.5 °F 37.4 °F 93% 30.11 in 10.0 mi NE 10.4 mph - 0.01 in Rain Light Rain
1:42 PM 39.2 °F 33.0 °F 37.4 °F 93% 30.11 in 10.0 mi NE 9.2 mph - 0.01 in Rain Light Rain
1:53 PM 39.0 °F 32.8 °F 37.0 °F 93% 30.11 in 10.0 mi NNE 9.2 mph - 0.01 in   Overcast
2:53 PM 39.0 °F 33.4 °F 37.0 °F 93% 30.12 in 10.0 mi NE 8.1 mph - N/A   Overcast
3:23 PM 39.2 °F 33.0 °F 37.4 °F 93% 30.14 in 10.0 mi ENE 9.2 mph - N/A   Overcast
3:53 PM 39.9 °F 33.4 °F 37.0 °F 89% 30.14 in 10.0 mi NNE 10.4 mph - N/A   Overcast
4:38 PM 39.2 °F 33.6 °F 35.6 °F 87% 30.17 in 10.0 mi NE 8.1 mph - N/A   Overcast
4:50 PM 39.2 °F 33.6 °F 35.6 °F 87% 30.16 in 10.0 mi NE 8.1 mph - N/A   Overcast
4:53 PM 39.9 °F 34.5 °F 37.0 °F 89% 30.16 in 10.0 mi NE 8.1 mph - N/A   Overcast
5:13 PM 39.2 °F 33.6 °F 35.6 °F 87% 30.17 in 10.0 mi ENE 8.1 mph - N/A   Overcast
5:53 PM 39.0 °F 32.3 °F 36.0 °F 89% 30.19 in 10.0 mi NE 10.4 mph - N/A   Overcast
6:03 PM 39.2 °F 34.2 °F 35.6 °F 87% 30.20 in 10.0 mi NE 6.9 mph - N/A   Overcast
6:53 PM 36.0 °F 31.1 °F 34.0 °F 93% 30.21 in 10.0 mi NE 5.8 mph - N/A   Clear
7:53 PM 33.1 °F 30.0 °F 32.0 °F 96% 30.22 in 9.0 mi NNE 3.5 mph - N/A   Clear
8:53 PM 30.0 °F - 28.9 °F 96% 30.24 in 4.0 mi Calm Calm - N/A   Clear
9:53 PM 30.0 °F - 28.9 °F 96% 30.24 in 3.0 mi Calm Calm - N/A   Clear
10:40 PM 28.4 °F - 28.4 °F 100% 30.24 in 1.5 mi Calm Calm - N/A   Clear
10:51 PM 28.4 °F - 28.4 °F 100% 30.24 in 3.0 mi Calm Calm - N/A   Clear
10:53 PM 30.0 °F - 28.0 °F 92% 30.24 in 4.0 mi Calm Calm - N/A   Clear
11:53 PM 28.0 °F - 27.0 °F 96% 30.25 in 1.8 mi Calm Calm - N/A   Partly Cloudy